[[{"header":{"parameterUnit":"m.s-1","parameterCategory":1,"la1":30.2991,"la2":30.254,"lo1":-89.0895,"lo2":-89.0444,"dy":0.0017,"dx":0.0017,"nx":28,"ny":28,"refTime":"2025-07-30T03:00:00:Z","depth":0,"parameterNumber":2,"parameterNumberName":"U-component_of_WINDS"},"data":[0,0,0,0,0,0,0,0,0,0,0,0,0,0,0,0,0,0,0,0,0,0,0,0,0,0,0,0,0,0,0,0,0,0,0,0,0,0,0,0,0,0,0,0,0,0,0,0,0,0,0,0,0,0,0,0,0,0,1.3377,1.3379,0,1.3539,1.354,1.3542,1.36,1.3599,1.3599,1.3598,1.3759,1.3764,1.3769,0,0,0,0,0,0,0,0,0,0,0,0,0,1.3115,1.3119,1.3377,1.3379,1.3381,1.3538,1.3541,1.3543,1.36,1.3599,1.3599,1.3598,1.3758,1.3764,1.3769,0,0,0,0,0,0,0,0,0,0,0,0,0,1.3247,1.3121,1.3377,1.3429,1.3435,1.3538,1.3541,1.3543,1.36,1.3599,1.3599,1.3598,1.3756,1.3763,1.377,1.3832,0,0,1.3792,1.3795,0,0,0,0,0,0,0,0,1.324,1.3257,1.3419,1.3425,1.3433,1.3548,1.3507,1.364,1.36,1.3537,1.3598,1.3597,1.369,1.3702,1.3734,1.3839,1.3846,1.3793,1.3797,1.38,1.3802,0,0,0,0,0,0,0,1.323,1.325,1.3441,1.3421,1.343,1.3443,1.3461,1.3533,1.3616,1.3543,1.3547,1.3566,1.3693,1.3727,1.3738,1.3848,1.3793,1.3799,1.3804,1.3806,1.4013,1.4014,0,0,0,0,0,0,1.3213,1.3242,1.3436,1.3446,1.3332,1.3448,1.3468,1.3512,1.3616,1.3631,1.3567,1.3568,1.3715,1.373,1.3744,1.3824,1.38,1.3807,1.3811,1.4011,1.4013,1.4014,0,0,0,0,0,0,1.3207,1.323,1.3429,1.3345,1.3372,1.3454,1.3502,1.3516,1.355,1.3634,1.3648,1.3586,1.3715,1.3734,1.381,1.383,1.381,1.3817,1.401,1.4012,1.4013,1.3982,0,0,0,0,0,0,1.32,1.3227,1.3252,1.3346,1.3376,1.3493,1.3504,1.3519,1.3563,1.3566,1.3656,1.367,1.3716,1.3799,1.3817,1.384,1.3823,1.4009,1.4011,1.4013,1.3982,1.3983,1.3983,0,0,0,0,0,1.319,1.3236,1.3253,1.3276,1.3409,1.3494,1.3511,1.3565,1.3564,1.3589,1.3643,1.3667,1.3825,1.3806,1.3827,1.3852,1.4008,1.401,1.4013,1.3981,1.3982,1.3983,0,0,0,0,0,0,1.3141,1.3249,1.3269,1.3347,1.3411,1.3504,1.3537,1.3564,1.3628,1.3628,1.3691,1.371,1.3781,1.3824,1.3801,1.3917,1.3918,1.3925,1.3887,1.3888,1.3889,1.3877,1.3829,0,0,0,0,0,1.314,1.3201,1.3291,1.3351,1.3383,1.3454,1.3493,1.3529,1.3597,1.3624,1.3683,1.3747,1.3812,1.3852,1.3916,1.3988,1.4009,1.4016,1.4017,1.4017,1.4022,1.4064,1.4068,1.4023,1.4023,1.4022,0,0,1.3137,1.3203,1.3238,1.3343,1.3397,1.3458,1.3476,1.354,1.3586,1.3633,1.3709,1.3755,1.383,1.3905,1.394,1.3943,1.4039,1.402,1.402,1.4025,1.4067,1.4071,1.4075,1.4024,1.4024,1.4024,0,0,1.3163,1.3219,1.3276,1.333,1.3412,1.346,1.3473,1.3562,1.3595,1.3672,1.3709,1.3764,1.3873,1.3925,1.3966,1.4013,1.4038,1.4032,1.4036,1.4076,1.408,1.4083,1.41,1.4105,1.4037,1.4037,1.4037,0,1.3148,1.3243,1.3301,1.3364,1.3409,1.3456,1.3514,1.3563,1.366,1.369,1.3691,1.383,1.3884,1.3972,1.3984,1.4015,1.4032,1.4022,1.4075,1.4079,1.4083,1.41,1.4106,1.4036,1.4036,1.4036,1.4036,0,1.3221,1.3286,1.3322,1.3417,1.3466,1.3526,1.3592,1.3634,1.3666,1.3713,1.3791,1.3858,1.3936,1.396,1.399,1.4052,1.4051,1.4063,1.4064,1.4085,1.4102,1.4109,1.4034,1.4035,1.4035,1.4035,0,0,1.322,1.3348,1.336,1.3404,1.3499,1.3549,1.361,1.3689,1.3724,1.379,1.3842,1.3934,1.3947,1.3993,1.403,1.4065,1.4098,1.4073,1.4076,1.4075,1.417,1.416,1.4167,1.4115,1.4117,1.4118,1.4164,0,1.3258,1.3371,1.3426,1.3515,1.3576,1.3623,1.3676,1.3739,1.3785,1.3842,1.3892,1.3956,1.3967,1.3996,1.4033,1.4086,1.4118,1.4084,1.4164,1.4166,1.4143,1.4176,1.4166,1.4206,1.4171,1.4172,1.4173,0,1.3317,1.3385,1.3481,1.3569,1.3597,1.3644,1.3721,1.3775,1.3847,1.3878,1.3931,1.3967,1.4032,1.403,1.412,1.4096,1.4132,1.4163,1.4166,1.4175,1.417,1.4185,1.422,1.4225,1.4184,1.4183,1.4182,0,1.3307,1.3422,1.3494,1.3531,1.3635,1.3668,1.3712,1.3784,1.3828,1.3894,1.3923,1.3996,1.4035,1.409,1.4145,1.4138,1.423,1.4232,1.4256,1.4255,1.4273,1.4271,1.4313,1.4297,1.4297,1.4296,1.4296,0,1.3344,1.34,1.3491,1.3535,1.36,1.3662,1.3724,1.3772,1.3836,1.3889,1.3934,1.3983,1.4052,1.411,1.4153,1.4221,1.4239,1.4265,1.4275,1.4261,1.4257,1.4285,1.4283,1.4298,1.4298,1.4297,1.4297,0,1.3342,1.3406,1.3488,1.3581,1.3606,1.3649,1.3728,1.3773,1.3821,1.3889,1.3908,1.3983,1.4054,1.4114,1.4206,1.4235,1.4306,1.4319,1.4282,1.4287,1.4309,1.4306,1.437,1.4381,1.4356,1.4357,1.4357,0,1.3361,1.3406,1.3505,1.3545,1.359,1.3654,1.37,1.3762,1.3807,1.3894,1.3928,1.4002,1.4064,1.4174,1.4236,1.4307,1.4322,1.4339,1.4332,1.4316,1.4322,1.4318,1.4323,1.4339,1.4339,1.4339,1.4339,0,1.3389,1.3418,1.3483,1.356,1.3613,1.3676,1.3739,1.3769,1.3843,1.3892,1.3966,1.4014,1.4109,1.4182,1.4259,1.4304,1.4334,1.4341,1.435,1.4336,1.4312,1.4325,1.4282,1.4339,1.4339,1.4339,1.4339,1.4339,1.3398,1.3441,1.3517,1.3588,1.3643,1.3702,1.3749,1.3804,1.3867,1.395,1.3983,1.4058,1.4129,1.4237,1.4282,1.4341,1.4345,1.4359,1.4362,1.4365,1.4362,1.4303,1.4355,1.4355,1.4355,1.4355,1.4356,0,1.3428,1.348,1.3545,1.3634,1.3689,1.3714,1.3786,1.3831,1.3897,1.3962,1.4023,1.4107,1.4178,1.4246,1.4321,1.4354,1.437,1.4372,1.4369,1.4379,1.4354,1.4339,1.4358,1.4358,1.4358,1.4358,1.4358,1.4358,1.345,1.3523,1.3562,1.3663,1.3714,1.3789,1.3828,1.3882,1.3935,1.4028,1.4088,1.4132,1.4199,1.4278,1.4344,1.4362,1.4387,1.4385,1.4407,1.4382,1.4381,1.438,1.4366,1.439,1.4391,1.4428,1.4428,1.4428]},{"header":{"parameterUnit":"m.s-1","parameterCategory":1,"la1":30.2991,"la2":30.254,"lo1":-89.0895,"lo2":-89.0444,"dy":0.0017,"dx":0.0017,"nx":28,"ny":28,"refTime":"2025-07-30T03:00:00:Z","depth":0,"parameterNumber":3,"parameterNumberName":"V-component_of_WINDS"},"data":[0,0,0,0,0,0,0,0,0,0,0,0,0,0,0,0,0,0,0,0,0,0,0,0,0,0,0,0,0,0,0,0,0,0,0,0,0,0,0,0,0,0,0,0,0,0,0,0,0,0,0,0,0,0,0,0,0,0,4.0897,4.0898,0,4.0979,4.098,4.0981,4.0962,4.096,4.0958,4.0957,4.1036,4.104,4.1043,0,0,0,0,0,0,0,0,0,0,0,0,0,4.0716,4.072,4.0897,4.0898,4.0899,4.0979,4.098,4.0981,4.0962,4.096,4.0958,4.0956,4.1035,4.1039,4.1043,0,0,0,0,0,0,0,0,0,0,0,0,0,4.0796,4.0721,4.0897,4.0899,4.09,4.0979,4.098,4.0982,4.0962,4.096,4.0958,4.0955,4.1034,4.1039,4.1044,4.1124,0,0,4.106,4.1063,0,0,0,0,0,0,0,0,4.0792,4.0803,4.0898,4.0899,4.09,4.0958,4.0946,4.1029,4.0963,4.0938,4.0957,4.0954,4.1012,4.1019,4.1039,4.1128,4.1131,4.1061,4.1064,4.1066,4.1068,0,0,0,0,0,0,0,4.0786,4.0799,4.0929,4.0899,4.0901,4.0894,4.0903,4.0961,4.0987,4.094,4.0939,4.095,4.1012,4.1034,4.1041,4.1132,4.1061,4.1065,4.1069,4.1071,4.1289,4.1291,0,0,0,0,0,0,4.078,4.0795,4.0927,4.0932,4.0839,4.0899,4.0909,4.0942,4.0986,4.0991,4.0951,4.0948,4.1026,4.1035,4.1044,4.114,4.1066,4.1071,4.1074,4.1286,4.1289,4.1292,0,0,0,0,0,0,4.0777,4.0792,4.0923,4.0863,4.0879,4.0905,4.0942,4.0944,4.0967,4.0995,4.0999,4.097,4.1025,4.1036,4.1104,4.1142,4.1074,4.1079,4.1283,4.1287,4.1291,4.1333,0,0,0,0,0,0,4.0771,4.0791,4.0823,4.0864,4.0882,4.0985,4.0944,4.0948,4.0977,4.0973,4.1013,4.1017,4.1024,4.1096,4.111,4.1148,4.1083,4.128,4.1285,4.129,4.1328,4.1338,4.1346,0,0,0,0,0,4.0765,4.0831,4.0825,4.0841,4.0924,4.0987,4.0997,4.1005,4.098,4.1011,4.1029,4.1016,4.1136,4.1103,4.1118,4.1159,4.1278,4.1284,4.1289,4.1324,4.1336,4.1346,0,0,0,0,0,0,4.0793,4.0837,4.083,4.0912,4.0946,4.0984,4.1024,4.1017,4.1058,4.1053,4.1058,4.1067,4.1137,4.1154,4.1118,4.1238,4.1203,4.1212,4.1224,4.1236,4.1244,4.1239,4.1087,0,0,0,0,0,4.0809,4.0859,4.0893,4.0961,4.0979,4.0999,4.1026,4.1029,4.1064,4.1078,4.1101,4.1133,4.1178,4.1208,4.125,4.133,4.1338,4.1365,4.1374,4.1381,4.1389,4.1431,4.1444,4.1311,4.1311,4.1311,0,0,4.0842,4.0872,4.0903,4.0968,4.0995,4.1044,4.1011,4.1065,4.1101,4.1085,4.1152,4.1169,4.1206,4.128,4.1314,4.1297,4.1427,4.1388,4.1394,4.1398,4.1439,4.1451,4.1462,4.1315,4.1315,4.1314,0,0,4.0927,4.0955,4.1015,4.1043,4.1084,4.1097,4.1111,4.1149,4.1161,4.1228,4.1217,4.1258,4.1336,4.1362,4.1386,4.1479,4.1469,4.1493,4.1539,4.158,4.1591,4.16,4.1633,4.1645,4.15,4.1501,4.1501,0,4.0963,4.1039,4.1046,4.1102,4.113,4.1119,4.1179,4.1204,4.1257,4.1275,4.1256,4.1352,4.1376,4.1456,4.1479,4.1498,4.1513,4.1489,4.1589,4.1598,4.1607,4.1639,4.1651,4.1503,4.1503,4.1503,4.1502,0,4.108,4.1133,4.1176,4.1228,4.1261,4.1318,4.1332,4.1364,4.1363,4.1377,4.1444,4.1472,4.152,4.1539,4.1538,4.1618,4.1606,4.1588,4.1553,4.1622,4.1652,4.1664,4.1507,4.1506,4.1505,4.1505,0,0,4.1187,4.1243,4.1258,4.1282,4.1326,4.1365,4.142,4.1469,4.1496,4.1531,4.1577,4.1642,4.1625,4.1652,4.1653,4.169,4.1761,4.1667,4.1667,4.1683,4.185,4.1864,4.1878,4.1754,4.1756,4.1758,4.1847,0,4.1277,4.1377,4.1384,4.1474,4.1521,4.1511,4.1558,4.1589,4.1603,4.1644,4.1657,4.1704,4.1678,4.1694,4.1729,4.1745,4.1795,4.1739,4.1795,4.1797,4.1787,4.1894,4.1909,4.1993,4.1859,4.1861,4.1862,0,4.1396,4.1437,4.1531,4.1567,4.1588,4.1631,4.1675,4.1715,4.1748,4.1755,4.1785,4.1781,4.1835,4.1797,4.1872,4.1833,4.1856,4.1867,4.187,4.1877,4.1835,4.1903,4.2019,4.2032,4.1881,4.1879,4.1878,0,4.1464,4.1543,4.1609,4.1629,4.1673,4.1704,4.1723,4.1755,4.1783,4.182,4.1838,4.1881,4.1905,4.1937,4.1944,4.1916,4.2018,4.1981,4.2024,4.2024,4.2047,4.2046,4.2169,4.2061,4.2061,4.2061,4.206,0,4.1564,4.1623,4.1641,4.1682,4.1746,4.1752,4.1815,4.1832,4.186,4.1902,4.1894,4.1934,4.194,4.1981,4.1986,4.2046,4.2057,4.2063,4.2064,4.2064,4.2064,4.208,4.2075,4.2064,4.2063,4.2063,4.2062,0,4.1653,4.1668,4.1739,4.1775,4.1785,4.1831,4.186,4.1898,4.191,4.1964,4.1977,4.1995,4.2042,4.2052,4.2107,4.2111,4.2183,4.2177,4.2172,4.2172,4.2215,4.2211,4.2354,4.2372,4.2251,4.2253,4.2254,0,4.1716,4.1761,4.1801,4.183,4.1851,4.1897,4.1926,4.1933,4.1963,4.2004,4.2037,4.2084,4.2121,4.2197,4.2214,4.2255,4.2251,4.2298,4.2258,4.2256,4.2252,4.225,4.2254,4.2306,4.2308,4.2309,4.231,0,4.1827,4.1832,4.1875,4.192,4.1955,4.1991,4.2024,4.2048,4.2059,4.2092,4.2141,4.2171,4.2227,4.2273,4.2315,4.2332,4.2323,4.2322,4.2335,4.2336,4.2331,4.2335,4.2194,4.2319,4.2318,4.2318,4.2317,4.2317,4.1905,4.1944,4.1979,4.2026,4.2052,4.2084,4.2121,4.2138,4.218,4.2228,4.2228,4.2281,4.2312,4.2367,4.2387,4.2427,4.2412,4.243,4.2435,4.2439,4.2443,4.2324,4.2434,4.2434,4.2434,4.2434,4.2434,0,4.2015,4.2037,4.2081,4.2129,4.2166,4.2154,4.2191,4.2222,4.2269,4.2299,4.2337,4.2392,4.2436,4.2456,4.2499,4.2527,4.2524,4.2538,4.2536,4.254,4.2454,4.244,4.254,4.254,4.254,4.254,4.254,4.254,4.2078,4.2143,4.2151,4.2229,4.2249,4.2302,4.2324,4.2352,4.2376,4.2439,4.2476,4.2489,4.2515,4.2559,4.2598,4.2603,4.2619,4.2635,4.2638,4.2557,4.2547,4.2536,4.2523,4.2639,4.2639,4.2721,4.2722,4.2722]}]]